"Pseudo-MPEC" for CEAE7Q2

Created 2026 Mar 10 7:35:15 UT using Find_Orb

Click here for an explanation of pseudo-MPECs

 
 Astrometry: 
     CEAE7Q2*1C2026 03 08.37615111 31 22.444+05 07 21.32   ~389o 18.33GVNEOCPG96
     CEAE7Q2 1C2026 03 08.38175411 31 26.008+05 03 27.22   ~389o 18.24GVNEOCPG96
     CEAE7Q2 1C2026 03 08.38736011 31 29.690+04 59 28.28   ~389o       VNEOCPG96
     CEAE7Q2 1C2026 03 08.39297011 31 33.355+04 55 28.16   ~389o 18.36GVNEOCPG96
     CEAE7Q2 1C2026 03 08.40995911 31 45.001+04 43 03.14   ~38A5 18.09GVNEOCPI52
     CEAE7Q2 1C2026 03 08.41047211 31 45.361+04 42 40.18   ~38A5 18.28GVNEOCPI52
     CEAE7Q2 1C2026 03 08.41098711 31 45.736+04 42 17.28   ~38A5 18.15GVNEOCPI52
     CEAE7Q2 1C2026 03 08.41150111 31 46.096+04 41 54.24   ~38A5 18.09GVNEOCPI52
     CEAE7Q2 1C2026 03 08.42892 11 31 59.33 +04 28 49.4 FixDup   18.1 RVNEOCP691
     CEAE7Q2 1C2026 03 08.42892011 31 59.330+04 28 49.40Duplicate18.1 RVNEOCP691
     CEAE7Q2 1C2026 03 08.43072 11 32 00.63 +04 27 26.2 FixDup   18.1 RVNEOCP691
     CEAE7Q2 1C2026 03 08.43072011 32 00.630+04 27 26.20Duplicate18.1 RVNEOCP691
     CEAE7Q2 1C2026 03 08.43253 11 32 02.04 +04 26 01.8 FixDup   18.0 RVNEOCP691
     CEAE7Q2 1C2026 03 08.43253011 32 02.040+04 26 01.80Duplicate18.0 RVNEOCP691
     CEAE7Q2  C2026 03 08.44907511 32 12.823+04 12 21.89   ~38BZ 17.8 GWNEOCPH01
     CEAE7Q2  C2026 03 08.45635911 32 18.983+04 06 27.29   ~38BZ 18.5 GWNEOCPH01
     CEAE7Q2  C2026 03 08.46254311 32 24.345+04 01 22.41   ~38BZ 17.9 GWNEOCPH01
     CEAE7Q2  C2026 03 08.46959111 32 30.623+03 55 29.59   ~38BZ 18.1 GWNEOCPH01
     CEAE7Q2 1C2026 03 08.47342011 32 35.416+03 52 42.56   ~38BZ 17.94GVNEOCPI52
     CEAE7Q2 1C2026 03 08.47393211 32 35.884+03 52 16.97   ~38BZ 18.05GVNEOCPI52
     CEAE7Q2 1C2026 03 08.47444611 32 36.344+03 51 50.62   ~38BZ 17.95GVNEOCPI52
     CEAE7Q2 1C2026 03 08.47496211 32 36.805+03 51 24.52   ~38BZ 17.99GVNEOCPI52
     CEAE7Q2 KB2026 03 08.51357811 34 52.942+03 16 53.33   ~38D5 16.5 GXNEOCPQ10
     CEAE7Q2 KB2026 03 08.51699811 34 56.558+03 13 45.37   ~38D5 16.9 GXNEOCPQ10
     CEAE7Q2 KB2026 03 08.52034611 35 00.055+03 10 38.71   ~38D5 17.3 GXNEOCPQ10
     CEAE7Q2 KC2026 03 08.86287311 46 40.274-05 21 53.96   ~38Mo 17.5 GXNEOCPL18
     CEAE7Q2 KC2026 03 08.86600111 46 49.442-05 29 19.14   ~38Mo 17.3 GXNEOCPL18
     CEAE7Q2 KC2026 03 08.86912811 46 58.771-05 36 46.58   ~38Mo 17.2 GXNEOCPL18
     CEAE7Q2 KB2026 03 08.87904611 47 37.53 -06 00 56.0    ~38Lo 15.8 GVNEOCPG02
     CEAE7Q2 KB2026 03 08.88068611 47 42.70 -06 05 00.5    ~38Lo 15.5 GVNEOCPG02
     CEAE7Q2 KB2026 03 08.88248111 47 48.28 -06 09 29.6    ~38Lo 15.7 GVNEOCPG02
     CEAE7Q2 KB2026 03 08.89996 11 48 37.94 -06 53 46.9    ~38M5 17.3 GXNEOCPM45
     CEAE7Q2 KB2026 03 08.90109 11 48 41.65 -06 56 47.6    ~38M5 16.9 GXNEOCPM45
     CEAE7Q2 KB2026 03 08.90226 11 48 45.45 -06 59 55.4    ~38M5 16.9 GXNEOCPM45
     CEAE7Q2 KB2026 03 08.91317711 49 59.73 -07 28 20.3    ~38MZ 16.6 GXNEOCP958
     CEAE7Q2 KB2026 03 08.91596611 50 09.75 -07 36 09.7    ~38MZ 16.5 GXNEOCP958
     CEAE7Q2 KB2026 03 08.91873011 50 19.79 -07 43 59.5    ~38MZ 16.6 GXNEOCP958
     CEAE7Q2 KB2026 03 08.97385811 53 40.48 -10 40 54.5    ~390K 17.3 GXNEOCPL65
     CEAE7Q2 KB2026 03 08.97884 11 53 35.28 -10 56 02.6    ~390Z 16.5 GVNEOCPL16
     CEAE7Q2 KB2026 03 08.98094 11 53 44.56 -11 03 31.0    ~390Z 17.1 GVNEOCPL16
     CEAE7Q2 KB2026 03 08.98302 11 53 53.79 -11 10 56.1    ~390Z 18.1 GVNEOCPL16
     CEAE7Q2 KB2026 03 08.98426811 54 27.91 -11 17 51.7    ~390K 17.8 GXNEOCPL65
     CEAE7Q2 KB2026 03 08.99457311 55 16.95 -11 55 56.9    ~390K 16.9 GXNEOCPL65

Station data:
(691) Steward Observatory, Kitt Peak - Spacewatch  (N31.962174 W111.600327)
   US/Arizona.  Observer J. V. Scotti. 0.9-m f/3 reflector + CCD.
(958) Observatoire de Dax  (N43.693381 W1.030530)  France.  Observer P.
   Dupouy. 0.32-m Schmidt-Cassegrain.
(G02) KYSUCE Observatory, Kysucke Nove Mesto  (N49.307313 E18.765390)
   Slovakia.  Observer M. Urbanik. 0.40-m f/4.4 reflector + CCD.
(G96) Mt. Lemmon Survey  (N32.442729 W110.788720)  US/Arizona.  Observer E.
   J. Christensen. Measurers T. Beuden, V. F. Carvajal, D. Fay, J. B.
   Fazekas, D. C. Fuls, A. R. Gibbs, A. D. Grauer, H. Gröller, J. K. Hogan,
   R. A. Kowalski, S. M. Larson, G. J. Leonard, D. Rankin, R. L. Seaman, F.
   C. Shelly, K. W. Wierzchoś. 1.5-m reflector + 10K CCD.
(H01) Magdalena Ridge Observatory, Socorro  (N33.984833 W107.189333)  US/New
   Mexico.  Observers W. H. Ryan, E. V. Ryan. Measurer W. H. Ryan. 2.4-m
   f/8.9 reflector + CCD.
(I52) Steward Observatory, Mt. Lemmon Station  (N32.442570 W110.788920)
   US/Arizona. Measurers T. Beuden, V. F. Carvajal, D. Fay, J. B. Fazekas, D.
   C. Fuls, A. R. Gibbs, A. D. Grauer, H. Gröller, J. K. Hogan, R. A.
   Kowalski, S. M. Larson, G. J. Leonard, D. Rankin, R. L. Seaman, F. C.
   Shelly, K. W. Wierzchoś. 1.0-m prime focus + CCD.
(L16) Stardreams Observatory, V\v{a}lenii de Munte  (N45.203693 E26.045610)
   Romania.
(L18) QOS Observatory, Zalistci  (N48.848292 E26.718280)  Ukraine.  Observers
   O. V. Kravchenko, Y. V. Tanasiychuk. Measurer A. M. Kozhukhov. 0.50-m
   f/3.8 reflector + CCD.
(L65) Bredenkamp Observatory, Bremen  (N53.075279 E8.828310)  Germany.
   Observer H. Duin. 0.23-m f/6.3 reflector + CMO.
(M45) Starhopper Observatory, Sfantu Gheorghe  (N45.865494 E25.768890)
   Romania.  Observer F. Ursache. 0.41-m f/7.5 reflector + CMO.
(Q10) Toyokawa Observatory  (N34.843616 E137.329440)  Japan.  Observer M.
   Ishiguro. 0.20-m f/5 reflector + CCD.

Orbital elements:  CEAE7Q2
   Perigee 2026 Mar 9.376649 +/- 3.22e-5 TT =  9:02:22.4 (JD 2461108.876649)
Epoch 2026 Mar  9.0 TT = JDT 2461108.5                           AutoNEOCP
q301204.5446 +/- 59.2               (J2000 equator)
H   28.09 G 0.15                    Peri.  252.283049 +/- 0.0011
                                    Node   354.753530 +/- 0.000027
e 190.21632406 +/- 0.0979           Incl.   70.737048 +/- 0.00018
From 43 observations 2026 Mar. 8 (14.8 hr); mean residual 0".50
Residuals in arcseconds: 
260308 G96  .23-  .23-    260308 H01  .05+  .20-    260308 G02  .67-  1.5+    
260308 G96  .41-  .67+    260308 H01  .02+  .04+    260308 M45  .18+  1.2-    
260308 G96  .24+  .55-    260308 H01  .01+  .26-    260308 M45  .48+  .96-    
260308 G96  .34-  .12-    260308 I52  .12-  .32-    260308 M45  .04-  .72-    
260308 I52  .19-  .13-    260308 I52  .01+  .09+    260308 958  .01-  .32+    
260308 I52  .22-  .20-    260308 I52  .03-  .13-    260308 958  .50-  .04+    
260308 I52  .05-  .09-    260308 I52  .10-  .04+    260308 958  .64-  .24-    
260308 I52  .11-  .15-    260308 Q10  .95+  .13+    260308 L65  .18+  .90-    
260308 691  .37+  .25+    260308 Q10  .90+  .48+    260308 L16  .35+  .23-    
260308 691  .37+  .25+    260308 Q10  .09+  .43-    260308 L16  .42+  .76-    
260308 691  .44-  .58+    260308 L18  .64-  1.0+    260308 L16  .18-  1.3+    
260308 691  .44-  .58+    260308 L18  .76-  .81-    260308 L65  .32+  .21+    
260308 691  .14+  .49+    260308 L18  .31+  .45-    260308 L65  .53+  .34-    
260308 691  .14+  .49+    260308 G02  .40-  .93+    
260308 H01  .08-  .07-    260308 G02  .24+  1.2+    

Ephemerides (geocentric):
Date (UTC) HH   RA             Dec           delta  r     elong  mag " sig PA
---- --------  ------------   ------------  ------ ------ -----  --- --------
2026 03 10 08  22 55 11.709   -28 32 10.22  .00899 .98495  25.1 27?? .396  40
2026 03 10 09  22 56 05.318   -28 02 58.76  .00936 .98459  24.6 27?? .419  39
2026 03 10 10  22 56 54.405   -27 35 59.94  .00974 .98423  24.1 27?? .440  37
2026 03 10 11  22 57 39.517   -27 10 59.45  .01011 .98388  23.7 27?? .460  37
2026 03 10 12  22 58 21.120   -26 47 44.95  .01048 .98352  23.3 28?? .478  36
2026 03 10 13  22 58 59.606   -26 26 05.72  .01086 .98316  23.0 28?? .494  35
2026 03 10 14  22 59 35.315   -26 05 52.42  .01123 .98280  22.6 28?? .510  35
2026 03 10 15  23 00 08.535   -25 46 56.88  .01161 .98244  22.3 28?? .524  34
2026 03 10 16  23 00 39.519   -25 29 11.93  .01198 .98208  22.0 28?? .537  34
2026 03 10 17  23 01 08.486   -25 12 31.24  .01236 .98172  21.8 28?? .550  33
2026 03 10 18  23 01 35.626   -24 56 49.20  .01274 .98136  21.5 29?? .561  33
2026 03 10 19  23 02 01.107   -24 42 00.84  .01311 .98100  21.3 29?? .572  33
2026 03 10 20  23 02 25.077   -24 28 01.72  .01349 .98065  21.0 29?? .582  32
2026 03 10 21  23 02 47.667   -24 14 47.88  .01387 .98029  20.8 29?? .591  32
2026 03 10 22  23 03 08.992   -24 02 15.77  .01424 .97993  20.6 29?? .600  32
2026 03 10 23  23 03 29.158   -23 50 22.19  .01462 .97957  20.5 29?? .609  32
2026 03 11 00  23 03 48.255   -23 39 04.27  .01500 .97921  20.3 29?? .617  31
2026 03 11 01  23 04 06.367   -23 28 19.41  .01538 .97885  20.1 29?? .624  31
2026 03 11 02  23 04 23.568   -23 18 05.25  .01576 .97850  20.0 29?? .631  31
2026 03 11 03  23 04 39.926   -23 08 19.65  .01613 .97814  19.8 30?? .638  31
2026 03 11 04  23 04 55.502   -22 59 00.68  .01651 .97778  19.7 30?? .645  31
2026 03 11 05  23 05 10.349   -22 50 06.54  .01689 .97742  19.5 30?? .651  31
2026 03 11 06  23 05 24.520   -22 41 35.64  .01727 .97707  19.4 30?? .656  30
2026 03 11 07  23 05 38.059   -22 33 26.47  .01765 .97671  19.3 30?? .662  30
2026 03 11 08  23 05 51.007   -22 25 37.69  .01803 .97635  19.2 30?? .667  30
2026 03 11 09  23 06 03.403   -22 18 08.03  .01841 .97599  19.1 30?? .672  30
2026 03 11 10  23 06 15.282   -22 10 56.36  .01878 .97564  19.0 30?? .677  30
2026 03 11 11  23 06 26.675   -22 04 01.61  .01916 .97528  18.9 30?? .682  30
2026 03 11 12  23 06 37.612   -21 57 22.80  .01954 .97492  18.8 30?? .686  30
2026 03 11 13  23 06 48.120   -21 50 59.03  .01992 .97456  18.7 30?? .690  30
2026 03 11 14  23 06 58.224   -21 44 49.45  .02030 .97421  18.6 30?? .694  30
2026 03 11 15  23 07 07.947   -21 38 53.30  .02068 .97385  18.5 31?? .698  30
2026 03 11 16  23 07 17.310   -21 33 09.84  .02106 .97349  18.4 31?? .702  30
2026 03 11 17  23 07 26.333   -21 27 38.41  .02144 .97314  18.4 31?? .705  29
2026 03 11 18  23 07 35.035   -21 22 18.38  .02182 .97278  18.3 31?? .709  29
2026 03 11 19  23 07 43.432   -21 17 09.18  .02220 .97242  18.2 31?? .712  29
2026 03 11 20  23 07 51.541   -21 12 10.24  .02258 .97207  18.2 31?? .715  29
2026 03 11 21  23 07 59.376   -21 07 21.08  .02296 .97171  18.1 31?? .718  29
2026 03 11 22  23 08 06.951   -21 02 41.20  .02334 .97135  18.0 31?? .721  29
2026 03 11 23  23 08 14.279   -20 58 10.18  .02372 .97100  18.0 31?? .724  29
2026 03 12 00  23 08 21.372   -20 53 47.58  .02410 .97064  17.9 31?? .727  29
2026 03 12 01  23 08 28.241   -20 49 33.01  .02448 .97028  17.9 31?? .730  29
2026 03 12 02  23 08 34.897   -20 45 26.12  .02486 .96993  17.8 31?? .732  29
2026 03 12 03  23 08 41.350   -20 41 26.55  .02524 .96957  17.8 31?? .735  29
2026 03 12 04  23 08 47.609   -20 37 33.98  .02562 .96922  17.8 31?? .737  29
2026 03 12 05  23 08 53.683   -20 33 48.10  .02600 .96886  17.7 31?? .740  29
2026 03 12 06  23 08 59.580   -20 30 08.62  .02638 .96850  17.7 31?? .742  29
2026 03 12 07  23 09 05.308   -20 26 35.28  .02676 .96815  17.6 31?? .744  29